1486015200.63,25532,6.44,72940.5,-10.73,-41.87,-42.13,0,*68
1486015201.89,25533,6.44,72936.3,-10.75,-42.05,-42.13,0,*66
1486015203.18,25534,6.5,72942.0,-10.75,-41.93,-42.05,0,*6A
1486015204.47,25535,6.44,72938.5,-10.75,-41.93,-42.05,0,*6B
1486015205.76,25536,6.44,72946.3,-10.75,-41.67,-42.05,0,*63
1486015207.02,25537,6.44,72934.0,-10.75,-41.73,-41.93,0,*6B
1486015208.26,25538,6.44,72934.0,-10.75,-41.87,-42.13,0,*64
1486015209.5,25539,6.44,72932.0,-10.75,-41.73,-41.87,0,*60
1486015210.78,25540,6.44,72934.3,-10.75,-41.67,-41.87,0,*6B
1486015212.04,25541,6.5,72936.3,-10.75,-41.87,-41.93,0,*61
1486015213.31,25542,6.44,72932.0,-10.75,-41.87,-42.05,0,*6E
1486015214.6,25543,6.44,72932.0,-10.75,-41.35,-41.35,0,*66
1486015215.87,25544,6.44,72928.8,-10.75,-41.35,-41.49,0,*6A
1486015217.14,25545,6.44,72934.3,-10.75,-41.29,-41.35,0,*6D
1486015218.4,25546,6.5,72938.8,-10.75,-41.49,-41.55,0,*6E
1486015219.65,25547,6.44,72932.5,-10.73,-41.67,-41.73,0,*61
1486015220.9,25548,6.5,72938.3,-10.73,-41.55,-41.87,0,*64
1486015222.14,25549,6.44,72944.8,-10.73,-41.87,-41.93,0,*6F
1486015223.36,25550,6.5,72942.3,-10.73,-42.25,-42.25,0,*62
1486015224.6,25551,6.5,72942.5,-10.73,-41.93,-42.13,0,*68
1486015225.84,25552,6.5,72938.3,-10.73,-41.73,-42.05,0,*62
1486015227.08,25553,6.5,72936.5,-10.73,-41.87,-42.05,0,*68
1486015228.39,25554,6.44,72932.3,-10.75,-41.35,-41.67,0,*67
1486015229.66,25555,6.44,72932.5,-10.73,-41.55,-41.55,0,*67
1486015230.9,25556,6.44,72932.3,-10.71,-41.61,-41.29,0,*6A
1486015232.12,25557,6.44,72932.0,-10.73,-41.49,-40.91,0,*61
1486015233.39,25558,6.44,72936.3,-10.73,-40.85,-40.85,0,*6A
1486015234.64,25559,6.44,72932.3,-10.73,-40.91,-41.35,0,*64
1486015235.94,25560,6.5,72936.8,-10.75,-41.23,-41.55,0,*66
1486015237.21,25561,6.5,72940.0,-10.75,-41.29,-41.55,0,*6D
1486015238.5,25562,6.5,72930.5,-10.75,-41.23,-41.55,0,*64
1486015239.77,25563,6.44,72924.8,-10.75,-41.49,-41.55,0,*69
1486015241.04,25564,6.5,72928.3,-10.75,-41.87,-41.93,0,*66
1486015242.31,25565,6.5,72930.0,-10.75,-41.93,-41.87,0,*67
1486015243.55,25566,6.44,72926.5,-10.75,-41.73,-41.87,0,*6A
1486015244.79,25567,6.5,72930.5,-10.77,-41.93,-41.99,0,*68
1486015246.05,25568,6.44,72930.5,-10.75,-42.05,-42.13,0,*68
1486015247.25,25569,6.44,72928.3,-10.77,-41.99,-42.13,0,*6D
1486015248.48,25570,6.5,72924.0,-10.77,-41.73,-41.93,0,*6A
1486015249.72,25571,6.44,72926.0,-10.77,-41.93,-41.99,0,*6F
1486015251.01,25572,6.5,72928.5,-10.75,-41.93,-42.05,0,*68
1486015252.25,25573,6.44,72924.0,-10.75,-41.73,-41.87,0,*6E
1486015253.52,25574,6.5,72924.5,-10.75,-41.87,-42.05,0,*6B
1486015254.73,25575,6.5,72926.3,-10.77,-41.99,-42.13,0,*60
1486015255.97,25576,6.44,72924.8,-10.77,-42.19,-41.99,0,*69
1486015257.2,25577,6.44,72924.5,-10.77,-42.31,-41.99,0,*62
1486015258.47,25578,6.5,72924.5,-10.77,-41.93,-41.35,0,*60
1486015259.71,25579,6.44,72920.8,-10.75,-41.73,-41.11,0,*6B
1486015260.93,25580,6.44,72920.0,-10.77,-41.61,-41.17,0,*6A
1486015262.14,25581,6.44,72922.0,-10.77,-41.61,-41.41,0,*68
1486015263.38,25582,6.44,72916.8,-10.77,-42.13,-41.93,0,*62
1486015264.65,25583,6.44,72916.8,-10.79,-42.13,-42.19,0,*6C
1486015265.91,25584,6.5,72920.3,-10.81,-42.05,-42.19,0,*6B
1486015267.15,25585,6.44,72926.8,-10.81,-42.05,-42.25,0,*65
1486015268.44,25586,6.5,72930.3,-10.79,-41.81,-41.93,0,*60
1486015269.68,25587,6.44,72924.8,-10.81,-41.67,-41.99,0,*64
1486015270.93,25588,6.5,72930.5,-10.81,-41.99,-42.19,0,*61
1486015272.17,25589,6.5,72938.8,-10.81,-41.67,-41.99,0,*6A
1486015273.44,25590,6.5,72938.0,-10.81,-41.81,-42.05,0,*6C
1486015274.71,25591,6.5,72936.3,-10.79,-41.41,-41.55,0,*60
1486015275.98,25592,6.44,72914.5,-10.79,-40.59,-40.91,0,*62
1486015277.22,25593,6.44,72900.8,-10.79,-40.73,-41.03,0,*61
1486015278.52,25594,6.5,72940.5,-10.79,-41.35,-41.35,0,*60
1486015279.78,25595,6.44,72930.3,-10.79,-41.41,-41.55,0,*64
1486015281.06,25596,6.5,72926.5,-10.79,-41.35,-41.41,0,*61
1486015282.32,25597,6.44,72920.8,-10.79,-41.55,-41.61,0,*64
1486015283.61,25598,6.44,72928.5,-10.79,-41.55,-41.81,0,*65
1486015284.87,25599,6.44,72932.3,-10.79,-41.93,-42.13,0,*66
1486015286.14,25600,6.44,72928.5,-10.79,-41.99,-42.19,0,*65
1486015287.39,25601,6.44,72926.8,-10.77,-41.81,-41.93,0,*62
1486015288.65,25602,6.5,72936.8,-10.79,-41.73,-41.93,0,*62
1486015289.92,25603,6.44,72942.0,-10.79,-42.13,-42.19,0,*67
1486015291.2,25604,6.44,72936.3,-10.79,-42.13,-42.31,0,*6A
1486015292.49,25605,6.44,72930.5,-10.79,-41.93,-42.19,0,*6A
1486015293.76,25606,6.44,72938.5,-10.81,-42.19,-42.19,0,*6F
1486015294.98,25607,6.44,72938.0,-10.81,-41.61,-41.87,0,*66
1486015296.25,25608,6.44,72936.5,-10.79,-41.93,-41.99,0,*6C
1486015297.47,25609,6.44,72940.5,-10.81,-41.99,-42.25,0,*64
1486015298.71,25610,6.44,72944.5,-10.81,-41.99,-42.19,0,*63
1486015299.97,25611,6.44,72950.8,-10.81,-41.81,-42.05,0,*66
1486015301.19,25612,6.44,72950.0,-10.81,-41.99,-42.25,0,*6E
1486015302.43,25613,6.44,72944.0,-10.81,-42.05,-42.25,0,*69
1486015303.68,25614,6.44,72946.5,-10.81,-41.67,-41.87,0,*62
1486015304.89,25615,6.5,72950.3,-10.81,-41.49,-41.61,0,*67
1486015306.14,25616,6.5,72948.3,-10.81,-41.67,-41.87,0,*60
1486015307.38,25617,6.44,72936.0,-10.81,-41.67,-41.99,0,*6E
1486015308.6,25618,6.5,72946.8,-10.81,-41.87,-42.25,0,*6B
1486015309.87,25619,6.44,72948.3,-10.81,-41.81,-42.05,0,*6E
1486015311.11,25620,6.44,72932.5,-10.81,-41.41,-41.67,0,*6F
1486015312.34,25621,6.44,72940.3,-10.81,-41.61,-41.87,0,*62
1486015313.58,25622,6.5,72940.0,-10.81,-41.35,-41.49,0,*62
1486015314.83,25623,6.5,72940.3,-10.81,-41.35,-41.41,0,*6B
1486015316.04,25624,6.44,72936.8,-10.81,-41.17,-41.17,0,*6F
1486015317.34,25625,6.44,72926.3,-10.79,-41.35,-41.55,0,*6F
1486015318.58,25626,6.44,72934.5,-10.81,-41.61,-41.81,0,*63
1486015319.79,25627,6.44,72932.5,-10.81,-41.49,-41.61,0,*66
1486015321.05,25628,6.44,72928.8,-10.79,-41.29,-41.55,0,*6F
1486015322.3,25629,6.44,72934.0,-10.79,-41.61,-41.73,0,*66
1486015323.59,25630,6.44,72942.5,-10.79,-41.93,-42.19,0,*6C
1486015324.85,25631,6.44,72944.0,-10.79,-41.93,-42.13,0,*67
1486015326.12,25632,6.44,72942.3,-10.81,-41.81,-42.19,0,*6A
1486015327.39,25633,6.44,72946.8,-10.79,-41.93,-42.13,0,*65
1486015328.63,25634,6.44,72946.3,-10.81,-41.99,-42.19,0,*65
1486015329.9,25635,6.44,72940.5,-10.81,-41.81,-42.05,0,*60
1486015331.14,25636,6.44,72942.0,-10.81,-42.25,-42.45,0,*6A
1486015332.37,25637,6.5,72944.0,-10.81,-42.05,-42.37,0,*6C
1486015333.64,25638,6.44,72946.3,-10.79,-41.99,-42.31,0,*64
1486015334.86,25639,6.44,72954.5,-10.81,-41.87,-42.13,0,*6D
1486015336.1,25640,6.44,72954.0,-10.81,-41.99,-42.19,0,*66
1486015337.37,25641,6.44,72956.3,-10.79,-41.81,-41.99,0,*62
1486015338.59,25642,6.5,72966.5,-10.81,-41.87,-41.99,0,*60
1486015339.85,25643,6.44,72952.5,-10.79,-41.73,-41.93,0,*67
1486015341.09,25644,6.44,72946.5,-10.79,-41.41,-41.41,0,*6E
1486015342.3,25645,6.44,72944.0,-10.81,-41.49,-41.61,0,*62
1486015343.57,25646,6.44,72944.3,-10.79,-41.55,-41.61,0,*6B
1486015344.78,25647,6.44,72942.0,-10.81,-41.41,-41.49,0,*62
1486015346.0,25648,6.44,72936.3,-10.81,-41.61,-41.61,0,*65
1486015347.24,25649,6.44,72948.3,-10.79,-41.41,-41.41,0,*63
1486015348.51,25650,6.44,72948.8,-10.79,-41.81,-41.99,0,*62
1486015349.74,25651,6.44,72942.8,-10.79,-41.29,-41.29,0,*6A
1486015350.98,25652,6.44,72946.8,-10.79,-41.17,-41.17,0,*69
1486015352.25,25653,6.44,72950.0,-10.79,-41.41,-41.55,0,*6D
1486015353.52,25654,6.44,72952.5,-10.79,-41.55,-41.61,0,*68
1486015354.78,25655,6.44,72954.0,-10.79,-41.55,-41.73,0,*6A
1486015356.02,25656,6.44,72958.5,-10.79,-41.73,-41.99,0,*69
1486015357.26,25657,6.44,72954.3,-10.81,-41.99,-42.19,0,*60
1486015358.53,25658,6.44,72946.8,-10.79,-41.55,-41.61,0,*64
1486015359.77,25659,6.44,72938.3,-10.79,-41.73,-41.73,0,*62
1486015361.03,25660,6.44,72934.3,-10.79,-41.61,-41.93,0,*65
1486015362.3,25661,6.44,72928.8,-10.79,-41.55,-41.73,0,*6D
1486015363.56,25662,6.44,72924.3,-10.79,-41.61,-41.93,0,*67
1486015364.8,25663,6.44,72930.0,-10.79,-41.61,-41.99,0,*6C
1486015366.04,25664,6.44,72932.0,-10.79,-41.61,-41.73,0,*6F
1486015367.28,25665,6.44,72930.3,-10.79,-41.41,-41.73,0,*6C
1486015368.55,25666,6.44,72928.0,-10.79,-41.61,-41.81,0,*60
1486015369.76,25667,6.44,72928.0,-10.77,-41.73,-41.99,0,*65
1486015370.99,25668,6.44,72936.3,-10.79,-41.73,-41.99,0,*64
1486015372.26,25669,6.44,72938.3,-10.79,-41.93,-42.13,0,*6A
1486015373.5,25670,6.5,72948.3,-10.81,-41.67,-41.99,0,*6F
1486015374.77,25671,6.44,72954.5,-10.79,-41.93,-42.25,0,*66
1486015376.01,25672,6.44,72950.3,-10.81,-42.05,-42.25,0,*6E
1486015377.25,25673,6.44,72950.3,-10.81,-42.05,-42.25,0,*6F
1486015378.47,25674,6.44,72948.0,-10.81,-41.87,-41.99,0,*65
1486015379.71,25675,6.44,72950.8,-10.81,-41.67,-41.87,0,*65
1486015380.98,25676,6.44,72940.8,-10.79,-41.17,-41.35,0,*6F
1486015382.28,25677,6.44,72938.0,-10.79,-40.97,-40.97,0,*6E
1486015383.52,25678,6.44,72934.8,-10.79,-41.17,-41.29,0,*6C
1486015384.81,25679,6.44,72936.8,-10.79,-41.35,-41.55,0,*66
1486015386.08,25680,6.44,72928.5,-10.79,-41.35,-41.41,0,*65
1486015387.3,25681,6.44,72926.3,-10.77,-41.41,-41.41,0,*69
1486015388.54,25682,6.44,72920.3,-10.77,-41.35,-41.41,0,*69
1486015389.8,25683,6.44,72910.8,-10.79,-41.29,-41.35,0,*68
1486015391.1,25684,6.44,72898.0,-10.75,-41.23,-41.23,0,*6E
1486015392.4,25685,6.44,72926.8,-10.75,-41.35,-41.55,0,*69
1486015393.7,25686,6.44,72924.8,-10.75,-41.35,-41.35,0,*6C
1486015394.93,25687,6.44,72930.5,-10.77,-41.11,-41.23,0,*6E
1486015396.2,25688,6.44,72930.8,-10.75,-41.23,-41.29,0,*68
1486015397.5,25689,6.44,72938.3,-10.75,-41.35,-41.35,0,*63
1486015398.71,25690,6.44,72934.0,-10.77,-41.61,-41.73,0,*6A
1486015399.95,25691,6.44,72932.5,-10.75,-41.49,-41.49,0,*6A
1486015401.22,25692,6.44,72932.0,-10.75,-41.35,-41.49,0,*62
1486015402.52,25693,6.44,72936.3,-10.75,-41.35,-41.35,0,*68
1486015403.79,25694,6.44,72932.8,-10.75,-41.11,-41.23,0,*6E
1486015405.0,25695,6.44,72926.8,-10.77,-41.17,-41.29,0,*61
1486015406.23,25696,6.44,72928.5,-10.75,-41.29,-41.29,0,*6D
1486015407.5,25697,6.44,72926.5,-10.75,-41.29,-41.35,0,*61
1486015408.74,25698,6.44,72926.3,-10.73,-41.29,-41.23,0,*6F
1486015409.99,25699,6.44,72922.0,-10.73,-41.49,-41.55,0,*69
1486015411.23,25700,6.44,72916.8,-10.73,-41.49,-41.55,0,*68
1486015412.48,25701,6.44,72918.5,-10.73,-41.49,-41.55,0,*69
1486015413.71,25702,6.44,72914.8,-10.71,-41.41,-41.49,0,*6D
1486015414.96,25703,6.44,72914.5,-10.73,-41.49,-41.67,0,*6A
1486015416.21,25704,6.44,72916.0,-10.73,-41.67,-41.73,0,*64
1486015417.48,25705,6.44,72918.8,-10.73,-41.55,-41.67,0,*61
1486015418.76,25706,6.44,72914.3,-10.73,-41.55,-41.55,0,*63
1486015419.97,25707,6.44,72904.5,-10.73,-41.49,-41.49,0,*62
1486015421.24,25708,6.44,72898.8,-10.73,-41.35,-41.55,0,*6B
1486015422.49,25709,6.44,72900.0,-10.71,-41.41,-41.41,0,*6E
1486015423.73,25710,6.44,72902.0,-10.73,-41.35,-41.49,0,*6F
1486015424.95,25711,6.44,72914.8,-10.73,-41.49,-41.49,0,*65
1486015426.19,25712,6.44,72914.5,-10.73,-41.35,-41.49,0,*6D
1486015427.47,25713,6.44,72916.3,-10.73,-41.35,-41.35,0,*67
1486015428.71,25714,6.44,72922.5,-10.73,-41.35,-41.49,0,*6B
1486015429.95,25715,6.44,72922.5,-10.73,-41.49,-41.55,0,*6C
1486015431.18,25716,6.44,72922.5,-10.73,-41.61,-41.87,0,*6A
1486015432.43,25717,6.44,72934.5,-10.73,-41.67,-41.87,0,*6D
1486015433.67,25718,6.44,72930.0,-10.73,-41.67,-41.87,0,*62
1486015434.92,25719,6.44,72928.3,-10.73,-41.55,-41.87,0,*62
1486015436.19,25720,6.44,72926.5,-10.73,-41.35,-41.55,0,*61
1486015437.47,25721,6.44,72940.0,-10.71,-41.03,-41.23,0,*66
1486015438.71,25722,6.44,72932.8,-10.73,-41.49,-41.67,0,*69
1486015439.95,25723,6.44,72924.8,-10.71,-41.41,-41.49,0,*6E
1486015441.22,25724,6.44,72928.8,-10.71,-41.41,-41.55,0,*64
1486015442.45,25725,6.44,72936.0,-10.71,-41.29,-41.49,0,*66
1486015443.69,25726,6.44,72942.3,-10.73,-41.11,-41.23,0,*60
1486015444.93,25727,6.44,72946.3,-10.71,-41.29,-41.41,0,*6C
1486015446.17,25728,6.5,72946.8,-10.73,-41.29,-41.55,0,*64
1486015447.41,25729,6.44,72942.8,-10.71,-41.41,-41.61,0,*6E
1486015448.64,25730,6.44,72944.5,-10.71,-41.49,-41.61,0,*6E
1486015449.91,25731,6.44,72944.0,-10.71,-41.23,-41.29,0,*6F
1486015451.2,25732,6.44,72940.0,-10.71,-41.23,-41.23,0,*66
1486015452.44,25733,6.44,72934.5,-10.71,-41.41,-41.49,0,*6F
1486015453.68,25734,6.44,72934.5,-10.71,-41.61,-41.87,0,*68
1486015454.9,25735,6.44,72930.8,-10.69,-41.99,-41.99,0,*68
1486015456.16,25736,6.44,72934.3,-10.71,-41.87,-42.05,0,*6B
1486015457.42,25737,6.44,72934.0,-10.71,-42.05,-42.37,0,*62
1486015458.69,25738,6.44,72932.5,-10.71,-41.87,-42.19,0,*68
1486015459.93,25739,6.44,72938.5,-10.73,-41.67,-42.13,0,*6F
1486015461.17,25740,6.44,72944.3,-10.73,-41.87,-42.05,0,*68
1486015462.43,25741,6.44,72944.0,-10.71,-41.81,-42.13,0,*6A
1486015463.65,25742,6.44,72946.3,-10.73,-41.87,-42.13,0,*6D
1486015464.88,25743,6.44,72944.0,-10.73,-42.25,-42.25,0,*62
1486015466.12,25744,6.5,72946.8,-10.73,-42.05,-42.25,0,*67
1486015467.36,25745,6.5,72946.0,-10.73,-41.67,-42.13,0,*64
1486015468.6,25746,6.44,72944.8,-10.73,-41.93,-42.13,0,*6C
1486015469.82,25747,6.44,72942.5,-10.73,-41.87,-42.13,0,*68
1486015471.06,25748,6.44,72932.0,-10.73,-41.73,-42.05,0,*6B
1486015472.3,25749,6.44,72936.3,-10.73,-41.23,-41.49,0,*64
1486015473.6,25750,6.44,72922.8,-10.75,-41.35,-41.67,0,*61
1486015474.85,25751,6.44,72920.3,-10.73,-41.29,-41.55,0,*6A
1486015476.06,25752,6.44,72918.5,-10.73,-41.29,-41.49,0,*64
1486015477.27,25753,6.44,72906.3,-10.73,-41.11,-41.29,0,*68
1486015478.52,25754,6.5,72910.8,-10.73,-41.23,-41.49,0,*68
1486015479.73,25755,6.44,72922.8,-10.73,-41.29,-41.49,0,*63
1486015480.96,25756,6.44,72924.8,-10.71,-41.29,-41.49,0,*62
1486015482.22,25757,6.44,72924.0,-10.71,-41.49,-41.81,0,*61
1486015483.48,25758,6.44,72922.8,-10.73,-41.55,-41.93,0,*62
1486015484.73,25759,6.44,72930.0,-10.73,-41.67,-42.13,0,*69
1486015485.97,25760,6.44,72928.0,-10.73,-41.67,-42.13,0,*63
1486015487.24,25761,6.44,72922.3,-10.73,-41.55,-42.05,0,*64
1486015488.48,25762,6.44,72924.5,-10.73,-41.73,-42.05,0,*63
1486015489.72,25763,6.44,72932.0,-10.73,-41.55,-41.87,0,*6F
1486015490.94,25764,6.44,72932.3,-10.73,-41.49,-41.73,0,*6E
1486015492.19,25765,6.44,72938.3,-10.73,-41.67,-41.87,0,*68
1486015493.46,25766,6.44,72940.3,-10.75,-41.67,-41.87,0,*6D
1486015494.7,25767,6.44,72942.5,-10.73,-41.73,-41.93,0,*6A
1486015495.99,25768,6.44,72936.3,-10.71,-41.23,-41.55,0,*68
1486015497.21,25769,6.44,72938.5,-10.73,-41.49,-41.73,0,*63
1486015498.43,25770,6.44,72938.8,-10.73,-41.49,-41.73,0,*6B
1486015499.67,25771,6.44,72936.0,-10.73,-41.67,-41.87,0,*6D
1486015500.93,25772,6.44,72934.0,-10.73,-41.67,-41.87,0,*6E
1486015502.19,25773,6.44,72934.8,-10.75,-41.55,-41.73,0,*63
1486015503.44,25774,6.44,72934.3,-10.73,-41.67,-42.13,0,*66
1486015504.68,25775,6.44,72934.8,-10.73,-41.93,-42.13,0,*6C
1486015505.95,25776,6.44,72938.5,-10.73,-41.93,-42.31,0,*6F
1486015507.23,25777,6.44,72940.8,-10.73,-41.93,-42.31,0,*6E
1486015508.44,25778,6.44,72932.8,-10.73,-41.73,-42.13,0,*6F
1486015509.73,25779,6.44,72932.5,-10.75,-41.55,-41.93,0,*67
1486015511.02,25780,6.44,72940.5,-10.75,-41.67,-41.93,0,*60
1486015512.25,25781,6.44,72952.3,-10.75,-41.73,-42.13,0,*6F
1486015513.5,25782,6.44,72952.8,-10.73,-41.55,-41.87,0,*60
1486015514.79,25783,6.44,72954.0,-10.75,-41.67,-41.93,0,*63
1486015516.0,25784,6.44,72954.0,-10.77,-41.61,-41.99,0,*6A
1486015517.29,25785,6.44,72952.5,-10.75,-41.67,-41.93,0,*65
1486015518.56,25786,6.44,72950.0,-10.75,-41.87,-42.05,0,*64
1486015519.82,25787,6.44,72950.3,-10.75,-41.93,-42.13,0,*67
1486015521.06,25788,6.44,72954.3,-10.75,-41.87,-42.13,0,*6D
1486015522.29,25789,6.44,72950.3,-10.77,-41.61,-41.81,0,*6E
1486015523.56,25790,6.44,72948.5,-10.75,-41.55,-41.73,0,*6E
1486015524.83,25791,6.44,72948.3,-10.77,-41.93,-42.19,0,*68
1486015526.1,25792,6.44,72942.3,-10.75,-41.67,-41.73,0,*6D
1486015527.34,25793,6.44,72920.8,-10.75,-41.49,-41.49,0,*69
1486015528.61,25794,6.44,72920.8,-10.75,-41.49,-41.35,0,*65
1486015529.9,25795,6.44,72912.3,-10.75,-41.23,-41.23,0,*6F
1486015531.14,25796,6.44,72916.3,-10.75,-41.49,-41.49,0,*6C
1486015532.39,25797,6.44,72918.8,-10.73,-41.49,-41.55,0,*66
1486015533.63,25798,6.44,72926.3,-10.73,-41.49,-41.55,0,*69
1486015534.85,25799,6.44,72926.5,-10.73,-41.49,-41.49,0,*65
1486015536.12,25800,6.44,72924.5,-10.73,-41.55,-41.67,0,*6B
1486015537.36,25801,6.44,72922.5,-10.73,-41.29,-41.23,0,*61
1486015538.59,25802,6.44,72916.0,-10.73,-41.11,-41.03,0,*6B
1486015539.8,25803,6.44,72922.3,-10.73,-41.29,-41.11,0,*62
1486015541.05,25804,6.44,72926.5,-10.73,-41.35,-41.29,0,*63
1486015542.32,25805,6.44,72926.3,-10.71,-41.03,-40.85,0,*62
1486015543.59,25806,6.44,72926.5,-10.71,-41.17,-40.97,0,*67
1486015544.83,25807,6.44,72922.5,-10.71,-41.17,-41.17,0,*6F
1486015546.07,25808,6.44,72916.3,-10.71,-41.17,-41.03,0,*65
1486015547.34,25809,6.44,72916.3,-10.71,-41.29,-41.23,0,*6B
1486015548.6,25810,6.44,72914.3,-10.71,-41.17,-40.97,0,*60
1486015549.85,25811,6.44,72918.8,-10.71,-41.41,-41.41,0,*68
1486015551.09,25812,6.44,72920.8,-10.71,-41.41,-41.41,0,*6B
1486015552.33,25813,6.44,72926.0,-10.71,-41.41,-41.41,0,*6A
1486015553.57,25814,6.44,72926.3,-10.71,-41.41,-41.41,0,*6D
1486015554.81,25815,6.44,72930.3,-10.71,-41.49,-41.49,0,*6C
1486015556.05,25816,6.44,72924.5,-10.71,-41.17,-41.03,0,*6A
1486015557.26,25817,6.44,72932.0,-10.69,-41.61,-41.61,0,*67
1486015558.47,25818,6.44,72934.3,-10.69,-41.29,-41.17,0,*65
1486015559.71,25819,6.44,72934.0,-10.69,-41.29,-41.23,0,*63
1486015561.01,25820,6.44,72930.5,-10.67,-41.23,-41.23,0,*6D
1486015562.25,25821,6.44,72930.8,-10.71,-41.41,-41.49,0,*63
1486015563.46,25822,6.44,72928.3,-10.69,-41.61,-41.61,0,*61
1486015564.68,25823,6.44,72922.5,-10.69,-41.61,-41.49,0,*6A
1486015565.92,25824,6.44,72928.8,-10.69,-41.67,-41.61,0,*61
1486015567.16,25825,6.44,72924.5,-10.69,-41.67,-41.49,0,*6A
1486015568.4,25826,6.44,72922.0,-10.71,-41.61,-41.61,0,*6C
1486015569.66,25827,6.44,72924.8,-10.71,-41.81,-41.61,0,*63
1486015570.9,25828,6.44,72922.8,-10.71,-41.87,-41.87,0,*62
1486015572.12,25829,6.44,72926.3,-10.69,-41.99,-41.87,0,*65
1486015573.33,25830,6.44,72926.8,-10.69,-41.99,-41.99,0,*62
1486015574.6,25831,6.44,72928.5,-10.71,-41.81,-41.87,0,*6C
1486015575.87,25832,6.44,72930.0,-10.71,-41.81,-41.87,0,*6F
1486015577.13,25833,6.44,72924.8,-10.71,-41.87,-41.81,0,*6E
1486015578.4,25834,6.44,72926.0,-10.71,-41.49,-41.23,0,*63
1486015579.64,25835,6.44,72932.8,-10.73,-41.23,-41.29,0,*66
1486015580.91,25836,6.44,72930.0,-10.71,-41.49,-41.67,0,*61
1486015582.16,25837,6.44,72918.8,-10.73,-41.35,-41.49,0,*65
1486015583.4,25838,6.44,72930.0,-10.73,-41.29,-41.35,0,*6C
1486015584.63,25839,6.44,72922.3,-10.71,-41.29,-41.29,0,*62
1486015585.9,25840,6.44,72928.5,-10.71,-41.17,-40.85,0,*66
1486015587.14,25841,6.44,72924.0,-10.71,-41.17,-41.29,0,*60
1486015588.43,25842,6.44,72930.5,-10.71,-41.23,-41.23,0,*6E
1486015589.67,25843,6.44,72926.5,-10.71,-41.17,-41.17,0,*6F
1486015590.94,25844,6.44,72926.5,-10.73,-41.23,-41.23,0,*6A
1486015592.19,25845,6.44,72926.5,-10.71,-41.03,-41.17,0,*6C
1486015593.41,25846,6.44,72926.8,-10.69,-41.41,-41.29,0,*6D
1486015594.64,25847,6.5,72932.5,-10.71,-41.29,-41.29,0,*6B
1486015595.88,25848,6.44,72936.0,-10.71,-41.41,-41.61,0,*66
1486015597.15,25849,6.44,72938.3,-10.71,-41.49,-41.67,0,*69
1486015598.41,25850,6.44,72938.8,-10.71,-41.61,-41.81,0,*63
1486015599.67,25851,6.5,72938.0,-10.71,-41.61,-41.81,0,*62
1486015600.93,25852,6.44,72932.0,-10.71,-41.73,-41.93,0,*61
1486015602.17,25853,6.44,72936.5,-10.71,-41.87,-41.99,0,*61
1486015603.42,25854,6.44,72932.5,-10.73,-41.49,-41.67,0,*67
1486015604.63,25855,6.44,72930.5,-10.73,-41.49,-41.73,0,*63
1486015605.9,25856,6.44,72936.5,-10.71,-41.49,-41.67,0,*67
1486015607.15,25857,6.5,72940.3,-10.73,-41.49,-41.67,0,*64
1486015608.4,25858,6.44,72942.0,-10.73,-41.67,-41.87,0,*69
1486015609.68,25859,6.44,72940.5,-10.73,-41.35,-41.67,0,*61
1486015610.92,25860,6.44,72940.3,-10.73,-41.55,-41.73,0,*68
1486015612.17,25861,6.44,72934.0,-10.73,-41.67,-41.73,0,*68
1486015613.41,25862,6.44,72930.0,-10.71,-41.41,-41.41,0,*6C
1486015614.66,25863,6.44,72936.8,-10.73,-41.49,-41.55,0,*62
1486015615.9,25864,6.44,72928.3,-10.73,-41.23,-41.29,0,*62
1486015617.11,25865,6.5,72916.3,-10.73,-41.29,-41.49,0,*6F
1486015618.38,25866,6.44,72910.3,-10.71,-41.35,-41.49,0,*63
1486015619.64,25867,6.44,72908.8,-10.71,-41.17,-41.23,0,*6E
1486015620.87,25868,6.44,72920.0,-10.71,-41.29,-41.49,0,*60
1486015622.12,25869,6.44,72926.0,-10.73,-41.49,-41.67,0,*69
1486015623.33,25870,6.44,72942.8,-10.73,-41.29,-41.49,0,*6B
1486015624.57,25871,6.44,72936.0,-10.71,-41.17,-41.41,0,*6D
1486015625.84,25872,6.44,72940.3,-10.71,-41.23,-41.41,0,*69
1486015627.06,25873,6.44,72940.3,-10.73,-41.03,-41.11,0,*6D
1486015628.33,25874,6.44,72940.5,-10.71,-40.79,-41.17,0,*62
1486015629.56,25875,6.44,72934.8,-10.71,-41.41,-41.49,0,*62
1486015630.83,25876,6.44,72928.3,-10.71,-41.03,-41.23,0,*6B
1486015632.1,25877,6.5,72930.0,-10.71,-41.17,-41.23,0,*6F
1486015633.33,25878,6.44,72922.3,-10.71,-41.29,-41.61,0,*6B
1486015634.56,25879,6.44,72916.8,-10.71,-41.29,-41.61,0,*6A
1486015635.8,25880,6.44,72916.3,-10.69,-41.23,-41.41,0,*6D
1486015637.01,25881,6.44,72926.5,-10.69,-41.29,-41.49,0,*6E
1486015638.28,25882,6.5,72922.5,-10.67,-40.97,-41.11,0,*6A
1486015639.54,25883,6.44,72924.3,-10.69,-40.79,-40.85,0,*69
1486015640.81,25884,6.44,72928.0,-10.67,-40.79,-41.11,0,*6C
1486015642.08,25885,6.44,72936.5,-10.67,-40.79,-40.91,0,*64
1486015643.34,25886,6.44,72936.5,-10.67,-40.97,-41.11,0,*6E
1486015644.62,25887,6.44,72946.5,-10.67,-41.23,-41.41,0,*64
1486015645.88,25888,6.44,72936.8,-10.67,-41.17,-41.23,0,*68
1486015647.13,25889,6.44,72924.0,-10.67,-40.91,-40.91,0,*6E
1486015648.38,25890,6.44,72902.5,-10.65,-40.41,-40.73,0,*65
1486015649.59,25891,6.44,72888.8,-10.65,-40.53,-40.73,0,*67
1486015650.82,25892,6.44,72894.8,-10.63,-40.53,-40.73,0,*62
1486015652.08,25893,6.44,72908.0,-10.65,-40.97,-40.79,0,*67
1486015653.31,25894,6.44,72918.3,-10.63,-40.73,-40.73,0,*66
1486015654.59,25895,6.44,72914.3,-10.63,-40.79,-40.79,0,*67
1486015655.83,25896,6.44,72934.0,-10.63,-41.11,-41.11,0,*64
1486015657.08,25897,6.44,72932.5,-10.57,-40.79,-41.03,0,*6E
1486015658.32,25898,6.44,72938.3,-10.59,-40.91,-41.29,0,*61
1486015659.59,25899,6.44,72932.8,-10.59,-41.29,-41.55,0,*69
1486015660.85,25900,6.44,72936.0,-10.59,-41.55,-41.73,0,*67
1486015662.12,25901,6.44,72926.3,-10.59,-41.55,-41.73,0,*66
1486015663.36,25902,6.44,72928.5,-10.63,-41.41,-41.61,0,*6A
1486015664.6,25903,6.44,72924.0,-10.63,-41.41,-41.73,0,*68
1486015665.84,25904,6.44,72934.5,-10.63,-41.41,-41.61,0,*6C
1486015667.1,25905,6.44,72940.0,-10.63,-41.35,-41.61,0,*6E
1486015668.39,25906,6.44,72950.0,-10.63,-41.23,-41.55,0,*6D
1486015669.66,25907,6.44,72954.0,-10.63,-41.17,-41.35,0,*6D
1486015670.9,25908,6.44,72958.5,-10.63,-41.41,-41.41,0,*62
1486015672.13,25909,6.44,72942.8,-10.63,-41.17,-41.17,0,*63
1486015673.37,25910,6.44,72948.8,-10.63,-41.11,-41.17,0,*6D
1486015674.65,25911,6.44,72920.0,-10.63,-40.91,-40.97,0,*6C
1486015675.89,25912,6.44,72936.0,-10.63,-41.11,-41.11,0,*69
1486015677.18,25913,6.44,72928.0,-10.59,-40.85,-40.85,0,*61
1486015678.48,25914,6.5,72942.8,-10.59,-40.85,-40.85,0,*66
1486015679.77,25915,6.44,72926.8,-10.59,-40.85,-40.85,0,*67
1486015681.04,25916,6.44,72920.3,-10.59,-40.85,-40.91,0,*61
1486015682.32,25917,6.44,72910.0,-10.57,-40.85,-40.85,0,*6B
1486015683.58,25918,6.44,72910.3,-10.59,-40.73,-40.85,0,*63
1486015684.86,25919,6.44,72916.0,-10.57,-40.85,-40.85,0,*65
1486015686.09,25920,6.44,72912.5,-10.57,-40.65,-40.79,0,*62
1486015687.35,25921,6.44,72910.5,-10.55,-40.59,-40.65,0,*63
1486015688.6,25922,6.44,72912.5,-10.53,-40.35,-40.59,0,*63
1486015689.87,25923,6.44,72914.3,-10.55,-40.85,-41.03,0,*61
1486015691.13,25924,6.44,72922.3,-10.55,-40.97,-41.11,0,*66
1486015692.4,25925,6.44,72926.5,-10.53,-40.97,-40.79,0,*6E
1486015693.64,25926,6.44,72924.5,-10.53,-40.79,-40.91,0,*6B
1486015694.92,25927,6.44,72924.0,-10.55,-41.03,-41.23,0,*68
1486015696.19,25928,6.44,72932.3,-10.55,-41.03,-41.23,0,*67
1486015697.43,25929,6.44,72934.8,-10.53,-41.17,-41.55,0,*64
1486015698.7,25930,6.44,72932.5,-10.55,-41.23,-41.49,0,*60
1486015699.94,25931,6.44,72930.0,-10.55,-41.11,-41.41,0,*68
1486015701.21,25932,6.44,72928.3,-10.55,-41.11,-41.23,0,*6F